Location: Hains Lake
(37.8540°N, 99.8578°W)
Time: 20:38:58
(UTC+00:00)

Vanguard 1 - Pass Details

Date: 06 December 2022
Orbit: 650 x 3831 km, 34.2° (Epoch: 05 February)

Event Time Altitude Azimuth Distance (km) Brightness Sun altitude
Rises 02:06:36 0° 222° (SW) 4,743 14.2 -32.2°
Reaches altitude 10° 02:10:58 10° 211° (SSW) 3,237 13.1 -33.0°
Enters shadow 02:14:51 21° 184° (S) 2,104 11.7 -33.8°
